Regional Weather Roundup
Issued by NWS Sterling, VA

Home | Current Version | Previous Version | Graphics & Text | Print | Product List | Glossary On
Versions: 1 2 3 4 5 6 7 8 9 10 11 12 13 14 15 16 17 18 19 20 21 22 23 24 25 26 27 28 29 30 31 32 33 34 35 36 37 38 39 40 41 42 43 44 45 46 47 48 49 50
565
ASUS41 KLWX 242110
RWRLWX

REGIONAL WEATHER ROUNDUP
NATIONAL WEATHER SERVICE BALTIMORE MD/WASHINGTON DC
500 PM EDT SAT SEP 24 2016

Note: "FAIR" indicates few or no clouds below 12,000 feet
with no significant weather and/or obstructions to visibility.
 TC=TEMPERATURE CELSIUS

 * =Non NWS site. Station does not report precipitation (e.g. rain,
    snow, etc.), thunder, or fog.

DCZ001-MDZ009-015-VAZ040>042-051-053>054-242200-
WASHINGTON METRO

CITY           SKY/WX    TMP DP  RH WIND       PRES   REMARKS
WASHINGTON NAT PTSUNNY   74  63  68 NE10      30.08S
DULLES         PTSUNNY   73  61  65 E10       30.07F
ANDREWS AFB    PTSUNNY   71  61  71 NE8       30.07S
FT BELVOIR     PTSUNNY   73  63  70 VRB2      30.07S
QUANTICO         N/A     74  64  71 NE10      30.08R
COLLEGE PARK*  CLOUDY    70  59  68 N6        30.08S
LEESBURG*      MOSUNNY   75  61  60 NW7       30.09S
MANASSAS*      PTSUNNY   75  64  69 E6        30.07S
GAITHERSBURG*  MOSUNNY   70  57  64 NE5       30.13S

$$

MDZ006>007-011-014-242200-
BALTIMORE METRO

CITY           SKY/WX    TMP DP  RH WIND       PRES   REMARKS
BWI AIRPORT    PTSUNNY   72  58  61 N8        30.09S
MD SCIENCE CTR   N/A     71  57  61 MISG      30.09S
ANNAPOLIS      CLOUDY    70  61  73 NE8       30.08S
FORT MEADE*    CLOUDY    70  59  68 N5        30.11S

$$

MDZ012-015-019>023-242200-
MARYLAND EASTERN SHORE

CITY           SKY/WX    TMP DP  RH WIND       PRES   REMARKS
OCEAN CITY     CLOUDY    68  64  87 N10       30.07R
SALISBURY      CLOUDY    66  63  90 N8        30.08R
BAY BRIDGE AP* CLOUDY    68  61  77 MISG      30.08S
CAMBRIDGE*     CLOUDY    68  61  77 NE8       30.07S
EASTON*        PTSUNNY   68  61  77 E7        30.12F

$$

MDZ017>025-242200-
SOUTHERN MARYLAND

CITY           SKY/WX    TMP DP  RH WIND       PRES   REMARKS
PATUXENT RIVER CLOUDY    71  63  75 NE7       30.06F
ST INIGOES     CLOUDY    71  65  81 NE9       30.06S
LEONARDTOWN*   CLOUDY    70  63  78 NE3       30.08F

$$

MDZ003>005-242200-
NORTH CENTRAL MARYLAND

CITY           SKY/WX    TMP DP  RH WIND       PRES   REMARKS
FREDERICK*     SUNNY     75  59  57 NE6       30.10F
HAGERSTOWN APT MOSUNNY   77  54  44 NW9       30.08F

$$

MDZ501>502-242200-
WESTERN MARYLAND

CITY           SKY/WX    TMP DP  RH WIND       PRES   REMARKS
OAKLAND*       PTSUNNY   63  59  88 NW5       30.18F
CUMBERLAND*    MOSUNNY   77  61  57 N6        30.12

$$

VAZ025>031-242200-
SHENANDOAH VALLEY

CITY           SKY/WX    TMP DP  RH WIND       PRES   REMARKS
WINCHESTER*    CLOUDY    72  57  60 E5        30.09F
FRONT ROYAL*   FAIR      73  61  64 NE9       30.08S
LURAY*         FAIR      75  63  64 N14       30.07R
NEW MARKET*    CLOUDY   N/A N/A N/A N14       30.05R
STAUNTON*      CLOUDY    82  65  57 SE3       30.07S
WAYNESBORO*    FAIR      81  65  58 E8        30.07S

$$

WVZ021-048>050-054>055-242200-
EASTERN WEST VIRGINIA PANHANDLE

CITY           SKY/WX    TMP DP  RH WIND       PRES   REMARKS
MARTINSBURG    SUNNY     76  57  51 N6        30.08F
PETERSBURG*    PTSUNNY   82  65  55 N5        30.07R

$$

VAZ036>039-050-242200-
CENTRAL FOOTHILLS

CITY           SKY/WX    TMP DP  RH WIND       PRES   REMARKS
CHARLOTTESVILL SUNNY     85  67  54 SE7       30.04S
CULPEPER*      CLOUDY    77  65  65 NE3       30.06S
ORANGE*          N/A     81  64  57 NE6       30.07R
GORDONSVILLE*  NOT AVBL
WARRENTON*     CLOUDY    76  59  55 NE6       30.06S

$$

VAZ055>057-242200-
NORTH AND CENTRAL PIEDMONT

CITY           SKY/WX    TMP DP  RH WIND       PRES   REMARKS
FREDERICKSBRG* MOSUNNY   74  67  78 NE8       30.06R
STAFFORD*      MOSUNNY   74  66  74 E9        30.11R

$$

NCZ024-NYZ072-PAZ021-071-VAZ022-071-242200-
OTHER REGIONAL OBSERVATIONS

CITY           SKY/WX    TMP DP  RH WIND       PRES   REMARKS
NEW YORK CITY  SUNNY     69  42  37 NE8       30.10S
PHILADELPHIA   PTSUNNY   72  54  53 CALM      30.08F
PITTSBURGH     MOSUNNY   74  51  44 N12       30.14S
ROANOKE        PTSUNNY   88  60  38 W8        30.06F
RICHMOND       PTSUNNY   79  67  66 NE15      30.03R
RALEIGH        MOSUNNY   89  65  44 NW3       30.02S HX  91

$$

ANZ530>537-242200-
MARINE OBSERVATIONS

STATION/POSITION TIME  TEMP    WIND        PRES
                       AIR SEA DIR/SP/G
                 (UTC) (F)     (DEG/KT/KT) (MB)
THOMAS PT LIGHT  2100   69 76   60/  8/ 10 1020.0R
BALT KEY BRIDGE  2048   69      40/  4/  5 1018.8S
COVE POINT       2048   70      50/ 10/ 12 1018.7F
LEWISETTA        2048   71 77   70/  9/ 11 1017.4F
SOLOMONS ISLAND  2042   71 78   30/  5/  6   N/A
PINEY POINT      2048           70/  9/ 10   N/A

$$





USA.gov is the U.S. government's official web portal to all federal, state and local government web resources and services.